Simultaneous Nadir Overpasses (SNOs) Predictions

Prediction of SNOs between GOES-17 and LANDSAT-8 Satellite Orbit:

Table of predicted SNOs for the next 14.0 days since TLE Epoch: 9/17/2022
Index Date Time (GOES-17) GOES-17 Lat,Lon LANDSAT-8 Lat,Lon Distance(km) Time Diff (sec)
1 09/17/2022 07:20:10 0.06,-137.29 0.23,-136.53 87.20 80
2 09/17/2022 19:38:45 -0.06,-137.30 0.90,-141.68 498.81 80
3 09/19/2022 07:07:59 0.05,-137.27 0.85,-133.57 421.34 80
4 09/19/2022 19:26:34 -0.05,-137.28 0.28,-138.72 164.80 80
5 09/21/2022 19:17:03 -0.05,-137.25 -0.36,-135.77 168.79 80
6 09/22/2022 07:35:47 0.05,-137.24 -0.76,-140.95 423.11 80
7 09/24/2022 07:23:36 0.05,-137.21 -0.12,-138.00 89.99 80
8 09/26/2022 07:14:04 0.05,-137.17 0.48,-135.03 242.72 80
9 09/26/2022 19:32:39 -0.05,-137.17 0.59,-140.20 343.87 80
10 09/28/2022 19:20:28 -0.05,-137.13 -0.01,-137.23 12.10 80
11 09/30/2022 19:10:56 -0.04,-137.07 -0.63,-134.27 318.79 80
